Погода в Новотроицком

Украина / Донецкая область     47°43′01″N   37°34′34″E
темп.,
°C
ветер,
м/с
пор.,
м/с
влажн.,
%
обл.,
%
осадки,
мм/ч
давл.,
гПа
погр.,
м
11 мая, вт
вт1100:00+7сз91593100 3.1 1011951
03:00+9с71194100 3.4 1010982
06:00+7ссв61087100 0.1 1011912
09:00+8ссв7971100 0.1 10121262
12:00+10ссв6862100 0.0 10121567
15:00+9с5874100 0.3 10131060
18:00+7ссв4685100 0.6 10141089
21:00+6вюв2593100 1.3 1014395
12 мая, ср
ср1200:00+6вюв369598 0.1 1015282
03:00+6в6997100 0.4 1015414
06:00+7в699498 0.2 1015526
09:00+8вюв4793100 0.7 1015478
12:00+12ююв587091 0.8 10151234
15:00+14ю795934 1.6 10141678
18:00+10ююв61287100 1.6 1015816
21:00+9юв499083 1.8 1016314
13 мая, чт
чт1300:00+7юв229415 0.1 101630
03:00+8всв3393100 0.1 101527
06:00+9в359398 0.0 1015139
09:00+15вюв467117 0.0 1015543
12:00+20юв56565 0.0 10141263
15:00+22вюв5551100 0.0 10131480
18:00+20юв4868100 0.0 1013393
21:00+15вюв4889100 0.0 1013140
14 мая, пт
пт1400:00+14в41095100 0.0 1012196
03:00+14вюв5129458 0.0 1012240
06:00+14вюв410921 0.0 1012214
09:00+20юв466941 0.0 1012450
12:00+25юв445244 0.0 1011840
15:00+27юв4447100 0.0 10111158
18:00+24ююв4661100 0.0 1011324
21:00+20ю1176100 0.0 101111
15 мая, сб
сб1500:00+17з61173100 1.9 1012238
03:00+16ю2274100 2.4 101012
06:00+15ююз23790 0.3 101248
09:00+20зюз34605 0.3 1012489
12:00+24юз56482 0.0 10131497
15:00+24зюз56450 0.0 10121871
18:00
21:00+16ююз48820 0.1 1014143